Вернуться в каталог

QZS-3

АктивенНавигацияGEO
NORAD 42917·PAYLOAD·🇯🇵 Japan

Запущен Aug 19, 2017 с Tanegashima Space Center

Loading…

TLE

СвежийSource: CelesTrak SupGP

Эпоха: Sep 13, 2026, 00:00 UTC

1 42917C 17048A   26256.00000000 -.00000258  00000+0  00000+0 0  2564
2 42917   0.0519 151.8360 0001690 358.0963 329.1005  1.00275037    10

Отслеживайте QZS-3 в реальном времени с AllMySat

Download on the App Store